Location: Gro�sch�nbrunn
(49.5760°N, 11.8868°E)
Time: 22:34:31
(UTC+00:00)

Lacrosse 5 rocket - Pass Details

Date: 18 September 2020
Orbit: 460 x 636 km, 57.0° (Epoch: 30 October)

Event Time Altitude Azimuth Distance (km) Brightness Sun altitude
Rises 18:07:21 0° 254° (WSW) 2,727 6.1 -8.7°
Reaches altitude 10° 18:09:34 10° 260° (W) 1,864 5.3 -9.0°
Maximum altitude 18:13:43 50° 336° (NNW) 757 2.3 -9.7°
Drops below altitude 10° 18:18:05 10° 53° (NE) 1,969 3.8 -10.4°
Enters shadow 18:19:31 - 57° (ENE) 2,519 4.3 -10.6°
